www.pogodaiklimat.ru

Погода и климат >> Архив погоды >> Буркина-Фасо >> Dedougou


ПОГОДА в Dedougou

  • Прогноз погоды в Dedougou
  • Монитор погоды в Dedougou
  • Климат города

АРХИВ ПОГОДЫ в Dedougou

Время (UTC), дата Ветер
(напр.,м/с)
 
Видим.   Явления Облачность Т
(С)
Тd
(С)
f
(%)
Тe
(С)
Тes
(С)
Комфортность P
(гПа)
Po
(гПа)
Тmin
(С)
Tmax
(С)
R
(мм)
S
(см)
15 14.02 СВ 3 15 км 8/0
[Ac trans Ci sp]
+38.0 +2.5 11 +35 +41 очень
жарко
1007.5 974.6
18 14.02 С 3 15 км 9/0
[Ac trans Ci sp]
+35.5 +2.1 12 +32 +32 жарко 1008.1 975.1 +39.0
21 14.02 В 1 10 км 9/0
[Ac trans Ci sp]
+31.1 +6.2 21 +29 +29 жарко 1010.8 977.7
00 15.02 СВ 2 10 км 9/0
[Ac trans Ci sp]
+29.5 +3.7 19 +27 +27 жарко 1010.7 977.9
03 15.02 В 2 10 км 9/0
[Ci sp]
+27.0 +2.3 20 +25 +25 комфорт 1009.7 976.8
06 15.02 В 1 10 км 9/0
[Ci sp]
+25.1 +2.3 23 +24 +24 комфорт 1010.4 977.3 +25.1
09 15.02 В 3 15 км 9/0
[Ci sp]
+28.7 -1.3 14 +26 +31 жарко 1011.9 978.7
12 15.02 В 4 15 км 9/0
[Ci sp]
+36.0 -3.6 8 +32 +42 жарко 1011.4 978.5
15 15.02 В 3 15 км 9/0
[Ac trans Ci sp]
+38.0 -2.2 8 +34 +40 очень
жарко
1008.8 975.9
18 15.02 В 3 15 км 9/0
[Ac trans Ci sp]
+34.9 -4.0 8 +31 +31 жарко 1009.3 976.1 +39.0
21 15.02 В 3 10 км 9/0
[Ci sp]
+30.3 -3.1 11 +27 +27 жарко 1011.0 977.7
00 16.02 В 3 10 км 9/0
[Ac trans Ci sp]
+29.5 -5.7 10 +26 +26 жарко 1011.3 978.4
03 16.02 В 3 10 км 9/0
[Ci sp]
+25.5 -4.3 14 +23 +23 комфорт 1010.4 977.4
06 16.02 В 3 10 км 9/0
[Ci sp]
+23.0 -5.1 15 +21 +21 комфорт 1011.0 977.6 +23.0
09 16.02 СВ 2 15 км 9/0
[Ci sp]
+27.8 -1.9 14 +25 +31 комфорт 1013.0 979.7
12 16.02 СВ 5 10 км 9/0
[Ci sp]
+35.0 -4.2 8 +31 +39 жарко 1012.2 979.2
15 16.02 В 5 10 км 9/0
[Ci sp]
+37.0 -2.4 8 +33 +37 жарко 1009.8 976.7
18 16.02 В 2 10 км 9/0
[Ci sp]
+34.5 -0.6 11 +31 +31 жарко 1009.4 976.1 +38.0
21 16.02 С 1 10 км 9/0
[Ci sp]
+29.7 -1.0 14 +27 +27 жарко 1011.5 978.2
00 17.02 С 1 10 км 9/0
[Ci sp]
+27.0 -0.4 17 +25 +25 комфорт 1012.3 979.2
03 17.02 С 1 10 км 9/0
[Ci sp]
+25.0 -1.4 17 +23 +23 комфорт 1011.5 978.4
06 17.02 СВ 2 10 км 9/0
[Ci sp]
+23.7 -1.9 18 +22 +22 комфорт 1012.2 978.8 +23.7
09 17.02 В 5 10 км 8/0
[Ci sp]
+28.1 -5.1 11 +25 +28 комфорт 1013.9 980.5
12 17.02 В 4 10 км 8/0
[Ci sp]
+34.0 -4.8 8 +30 +40 жарко 1013.2 980.0
15 17.02 В 5 10 км 9/0
[Ci sp]
+36.2 -2.9 8 +32 +36 жарко 1010.3 977.2
18 17.02 СВ 2 10 км 9/0
[Ci sp]
+33.9 -0.9 11 +30 +30 жарко 1010.4 977.1 +37.4
21 17.02 В 1 10 км 9/0
[Ci sp]
+28.5 +3.0 19 +27 +27 жарко 1012.4 979.0
00 18.02 СВ 1 10 км 9/0
[Ci sp]
+26.5 +0.5 18 +25 +25 комфорт 1013.1 979.9
03 18.02 СВ 2 10 км 9/0
[Ci sp]
+24.6 -1.9 17 +23 +23 комфорт 1012.6 979.4
06 18.02 СВ 3 10 км 9/0
[Ci sp]
+23.5 -3.8 16 +22 +22 комфорт 1012.4 979.1 +23.2
09 18.02 В 4 10 км 9/0
[Ci sp]
+27.0 -3.1 14 +24 +29 комфорт 1014.8 981.2
12 18.02 СВ 3 10 км 9/0
[Ci sp]
+32.3 -4.3 9 +28 +41 жарко 1014.1 980.8
15 18.02 В 3 15 км 9/0
[Ci sp]
+35.1 -5.0 7 +31 +38 жарко 1010.5 977.3
18 18.02 СВ 3 15 км 9/0
[Ci sp]
+33.0 -2.1 10 +29 +29 жарко 1010.8 977.4 +36.2
21 18.02 СВ 3 10 км 9/0
[Ci sp]
+27.0 0.0 17 +25 +25 комфорт 1012.9 979.4
00 19.02 СВ 3 10 км 9/0
[Ci sp]
+24.6 -1.5 18 +23 +23 комфорт 1013.4 980.0
03 19.02 В 2 10 км 9/0
[Ci sp]
+22.6 -2.3 19 +21 +21 комфорт 1012.9 979.5
06 19.02 В 3 10 км 9/0
[Ci sp]
+21.1 -4.1 18 +20 +20 1014.0 980.4 +21.1
09 19.02 В 3 10 км 9/0
[Ac trans Ci sp]
+27.0 -5.7 11 +24 +29 комфорт 1015.0 981.4
12 19.02 СВ 4 10 км 9/0
[Ci sp]
+33.0 -8.8 6 +29 +39 жарко 1013.3 979.9
15 19.02 СВ 2 10 км 9/0
[Ci sp]
+35.8 -6.2 7 +32 +40 жарко 1009.7 976.5
18 19.02 СВ 1 10 км 9/0
[Ci sp]
+32.7 -5.3 8 +29 +29 жарко 1009.8 976.3 +36.5
21 19.02 СВ 1 10 км 9/0
[Ci sp]
+28.0 -2.3 14 +25 +25 комфорт 1012.0 978.5
00 20.02 штиль 0 10 км 9/0
[Ci sp]
+26.2 -2.9 15 +24 +24 комфорт 1012.1 978.8
03 20.02 штиль 0 10 км 9/0
[Ci sp]
+24.0 -3.9 15 +22 +22 комфорт 1010.7 977.5
06 20.02 СВ 2 10 км 9/0
[Ci sp]
+22.1 -6.6 14 +21 +21 комфорт 1011.6 978.1 +22.1
09 20.02 ЮВ 4 15 км 9/0
[Ci sp]
+26.5 -9.4 9 +23 +28 комфорт 1013.2 979.7
12 20.02 ЮВ 2 15 км 9/0
[Ci sp]
+33.6 -9.2 6 +29 +44 жарко 1012.0 978.8
15 20.02 СВ 2 15 км 9/0
[Ci sp]
+36.0 -3.6 8 +32 +40 жарко 1008.8 975.7
18 20.02 В 1 15 км 9/0
[Ci sp]
+33.7 -1.5 10 +30 +30 жарко 1008.8 975.5 +37.0
21 20.02 В 2 10 км 9/0
[Ci sp]
+28.4 -3.1 13 +26 +26 жарко 1010.6 977.2
00 21.02 ЮВ 3 10 км 9/0
[Ci sp]
+25.6 -2.1 16 +24 +24 комфорт 1010.7 977.4
03 21.02 ЮВ 3 10 км 9/0
[Ci sp]
+24.5 -4.5 14 +22 +22 комфорт 1009.1 976.0
06 21.02 ЮВ 2 10 км 9/0
[Ci sp]
+23.0 -5.6 14 +21 +21 комфорт 1009.3 976.0 +23.0
09 21.02 В 2 10 км 9/0
[Ci sp]
+28.0 -3.3 13 +25 +32 комфорт 1011.6 978.2

 

Местоположение метеостанции Dedougou (Буркина-Фасо): широта 12.47 долгота -3.48 высота над уровнем моря 300 м.

В архиве по умолчанию представлена погода в Dedougou за последнюю неделю. Архивные данные за месяц целиком и за предыдущие месяцы, начиная с января 2011 года, Вы можете получить, выбрав интересующий диапазон дат из раскрывающегося списка и нажав кнопку "Ввод!".

Внимание! Время в таблицах - всемирное. Для получения местного времени необходимо прибавить поправку, которая в Dedougou равна 0 ч.

Смотрите также архив погоды в соседних городах и на ближайших метеорологических станциях:

Погода в Boromo (Буркина-Фасо) (100 км)
Погода в Ouahigouya (Буркина-Фасо) (168 км)
Погода в Bobo-Dioulasso (Буркина-Фасо) (171 км)
Погода в San (Мали) (175 км)
Погода в Ouagadougou (Буркина-Фасо) (213 км)
Погода в Koutiala (Мали) (216 км)
Погода в Mopti (Мали) (238 км)
Погода в Gaoua (Буркина-Фасо) (240 км)
Погода в Sikasso (Мали) (270 км)
Погода в Wa (Гана) (290 км)

Пояснения к столбцам:

Ветер - указаны скорость ветра в м/с - средняя за 10 мин, порывы в срок и между сроками (в фигурных скобках) и направление, откуда дует ветер: С - северный, СВ - северо-восточный, В - восточный, ЮВ - юго-восточный, Ю - южный, ЮЗ - юго-западный, З - западный, СЗ - северо-западный.
Видимость - горизонтальная дальность видимости в метрах или километрах. При видимости от 1 до 10 км при отсутствии осадков обычно наблюдается дымка, при ухудшении видимости до 1 км и менее - туман. В сухую погоду видимость может ухудшаться дымом, пылью или мглою.
Явления - указаны атмосферные явления, наблюдавшиеся в срок или в последний час перед сроком; фигурными скобками обозначены явления, наблюдавшиеся между сроками (за 1-3 часа до срока); квадратными скобками обозначены град или гололедные отложения с указанием их диаметра в мм.
Облачность - указаны через наклонную черту общая и нижняя облачность в баллах и высота нижней границы облаков в метрах; квадратными скобками обозначены формы облаков: Ci - перистые, Cs - перисто-слоистые, Cc - перисто-кучевые, Ac - высококучевые, As - высокослоистые, Sc - слоисто-кучевые, Ns - слоисто-дождевые, Cu - кучевые, Cb - кучево-дождевые. Подробнее классификацию облаков см. в Атласе облаков (PDF).
T - Температура воздуха - температура, измеренная на высоте 2 м над землей.
Td - Температура точки росы - температура, при понижении до которой содержащийся в воздухе водяной пар достигнет насыщения.
f - Относительная влажность воздуха - влажноcть воздуха, измеренная на высоте 2 м над землей.
Te - Эффективная температура - температура, которую ощущает одетый по сезону человек в тени. Характеристика душности погоды. При расчете учитывается влияние влажности воздуха и скорости ветра на теплоощущения человека.
Tes - Эффективная температура на солнце - температура, которую ощущает человек, с поправкой на солнечный нагрев. Характеристика знойности погоды. Зависит от высоты солнца над горизонтом, облачности и скорости ветра. Ночью, в пасмурную погоду, а также при ветре 12 м/с и более поправка равна нулю.
P - Атмосферное давление - приведенное к уровню моря атмосферное давление.
Po - Атмосферное давление - измеренное на уровне метеостанции атмосферное давление.
Tmin - Минимальная температура - минимум температуры воздуха на высоте 2 м над землей.
Tmax - Максимальная температура - максимум температуры воздуха на высоте 2 м над землей.
R - Количество осадков - Количество выпавших осадков, мм. При наведении курсора мыши на число - период времени, за который выпало указанное количество осадков.
S - Снежный покров - Высота снежного покрова, см. При наведении курсора мыши на число - состояние снежного покрова и степень покрытия местности в баллах.